Location: Lake Sonoma
(38.7200°N, 123.0564°W)
Time: 06:57:11
(UTC-07:00)

Amateur Radio Satellites - All Passes

Search period start: 23 April 2017 06:27
Search period end: 24 April 2017 06:27
Location: Lake Sonoma, 38.7200°N, 123.0564°W

Satellite Date Start Highest point End Downlink Frequencies (MHz)
Time Altitude Azimuth
KAITUO 1B 23 Apr 06:32:08 06:34:06 14° 93° (E) 06:36:04 145.475/437.950
CUTE-I 23 Apr 06:40:50 06:45:05 24° 95° (E) 06:49:19 437.470
STRAND 1 23 Apr 06:41:24 06:45:01 20° 65° (ENE) 06:48:38 437.568
SO-50 23 Apr 06:50:02 06:53:11 18° 110° (ESE) 06:56:18 436.795
XW-2F 23 Apr 06:51:53 06:55:15 30° 97° (E) 06:58:37 145.980 - 146.000
STARS 23 Apr 06:52:20 06:54:37 14° 268° (W) 06:56:54 437.465
AO-7 23 Apr 07:00:11 07:05:53 21° 307° (NW) 07:11:35 .
NUDT-PHONESAT 23 Apr 07:15:27 07:19:03 48° 100° (E) 07:22:40 437.300
DOVE 4 23 Apr 07:23:19 07:28:01 68° 285° (WNW) 07:32:24 437.250
M-CUBED/EXP-1 PRIME 23 Apr 07:37:39 07:42:09 78° 252° (WSW) 07:46:52 437.505
XW-2D 23 Apr 07:38:33 07:42:18 59° 285° (WNW) 07:46:03 145.860 - 145.880
XW-2B 23 Apr 07:45:25 07:49:07 50° 285° (WNW) 07:52:48 145.730 - 145.750
LilacSat-2 23 Apr 07:51:49 07:55:24 39° 287° (WNW) 07:59:00 437.200
XW-2C 23 Apr 07:57:19 08:00:47 34° 288° (WNW) 08:04:16 145.795 - 145.815
KAITUO 1B 23 Apr 08:04:47 08:08:14 35° 287° (WNW) 08:11:41 145.475/437.950
RS-15 23 Apr 08:08:22 08:20:03 63° 112° (ESE) 08:32:06 29.354- 29.394
STRAND 1 23 Apr 08:18:54 08:23:48 47° 260° (W) 08:28:45 437.568
CUTE-I 23 Apr 08:20:19 08:25:14 40° 290° (WNW) 08:30:07 437.470
HO-68 23 Apr 08:23:41 08:30:40 51° 101° (E) 08:37:37 435.675
XW-2F 23 Apr 08:26:40 08:29:09 17° 292° (WNW) 08:31:38 145.980 - 146.000
XW-2A 23 Apr 08:27:36 08:30:53 57° 100° (E) 08:34:11 145.665 - 145.685
SO-50 23 Apr 08:28:50 08:33:17 46° 306° (NW) 08:37:42 436.795
AO-73 23 Apr 08:47:01 08:48:07 11° 91° (E) 08:49:13 145.935
CUTE 1.7 + AOD 2 23 Apr 08:47:02 08:51:21 89° 284° (WNW) 08:55:38 437.475
NUDT-PHONESAT 23 Apr 08:51:46 08:52:31 10° 294° (WNW) 08:53:15 437.300
AAUSAT CUBESAT 2 23 Apr 08:59:08 09:03:02 36° 98° (E) 09:06:53 437.432
Oscar 11 23 Apr 09:06:06 09:08:51 16° 93° (E) 09:11:33 .
UWE-3 23 Apr 09:07:08 09:11:03 38° 98° (E) 09:15:00 435.000/436.395/437.385
FO-29 23 Apr 09:11:14 09:14:33 15° 62° (ENE) 09:17:42 435.910
CUBEBUG 2 23 Apr 09:11:52 09:16:02 77° 102° (ESE) 09:20:13 437.445
SEEDS 23 Apr 09:14:39 09:18:54 66° 284° (WNW) 09:23:06 437.485
UNISAT 6 23 Apr 09:25:06 09:27:54 17° 66° (ENE) 09:30:40 437.425
ISS 23 Apr 09:50:56 09:54:04 45° 136° (SE) 09:57:11 437.550
Tancredo 1 23 Apr 09:58:00 10:01:05 74° 139° (SE) 10:04:11 437.200
PRISM 23 Apr 10:01:40 10:05:46 73° 75° (ENE) 10:09:56 437.425
ZACube-1 23 Apr 10:11:18 10:15:27 65° 284° (WNW) 10:19:40 437.345
HO-68 23 Apr 10:11:59 10:18:01 30° 298° (WNW) 10:24:04 435.675
DELFI C3 23 Apr 10:18:16 10:21:47 29° 96° (E) 10:25:16 145.870
AO-73 23 Apr 10:20:33 10:24:39 56° 285° (WNW) 10:28:49 145.935
RS-15 23 Apr 10:21:45 10:33:08 44° 316° (NW) 10:44:48 29.354- 29.394
OBJECT BX 23 Apr 10:22:27 10:25:23 22° 96° (E) 10:28:19 145.990 - 145.960
AAUSAT CUBESAT 2 23 Apr 10:35:22 10:38:11 18° 293° (WNW) 10:40:59 437.432
TIGRISAT 23 Apr 10:39:42 10:44:09 79° 258° (WSW) 10:48:31 435.000
Oscar 11 23 Apr 10:41:03 10:45:07 40° 287° (WNW) 10:49:10 .
UWE-3 23 Apr 10:44:36 10:47:12 16° 293° (WNW) 10:49:50 435.000/436.395/437.385
FO-29 23 Apr 10:52:24 10:59:05 82° 256° (WSW) 11:04:59 435.910
NANOSAT C BR1 23 Apr 10:57:51 10:58:44 11° 63° (ENE) 10:59:36 145.865
UNISAT 6 23 Apr 11:00:04 11:04:17 42° 261° (W) 11:08:26 437.425
AIST 2D 23 Apr 11:12:13 11:15:09 26° 72° (ENE) 11:18:06 435.315
EO-79 23 Apr 11:20:34 11:23:47 21° 68° (ENE) 11:27:00 145.935-145.965
O/OREOS (USA 219) 23 Apr 11:26:51 11:31:23 68° 108° (ESE) 11:35:58 437.305
DUCHIFAT 1 23 Apr 11:27:14 11:30:22 21° 68° (ENE) 11:33:31 145.980
ISS 23 Apr 11:28:03 11:30:41 22° 333° (NNW) 11:33:18 437.550
ESTCUBE 1 23 Apr 11:31:03 11:33:00 12° 91° (E) 11:34:57 437.505/2401.250
Tancredo 1 23 Apr 11:35:16 11:37:21 16° 337° (NNW) 11:39:26 437.200
LO-87 23 Apr 11:38:53 11:41:53 25° 96° (E) 11:44:51 145.935 - 145.965
DELFI C3 23 Apr 11:53:26 11:56:22 20° 292° (WNW) 11:59:16 145.870
OBJECT BX 23 Apr 11:56:12 11:58:56 20° 290° (WNW) 12:01:40 145.990 - 145.960
POLYITAN 1 23 Apr 11:57:34 12:01:43 57° 74° (ENE) 12:05:51 437.675
QB50P2 23 Apr 12:03:52 12:08:05 74° 77° (ENE) 12:12:19 145.880/145.840
PCSat 23 Apr 12:16:45 12:21:46 36° 54° (NE) 12:26:44 145.827
NANOSAT C BR1 23 Apr 12:29:41 12:33:52 65° 259° (W) 12:38:04 145.865
RS-15 23 Apr 12:41:52 12:50:17 20° 348° (NNW) 12:58:43 29.354- 29.394
BUGSAT 1 23 Apr 12:43:17 12:47:18 47° 73° (ENE) 12:51:17 437.445
Oscar 19 23 Apr 12:43:39 12:47:13 19° 64° (ENE) 12:50:48 437.125/150
FO-29 23 Apr 12:43:45 12:44:39 10° 270° (W) 12:45:33 435.910
AIST 2D 23 Apr 12:46:18 12:48:23 15° 267° (W) 12:50:30 435.315
EO-79 23 Apr 12:55:39 12:59:21 29° 263° (W) 13:03:05 145.935-145.965
DUCHIFAT 1 23 Apr 13:02:08 13:05:51 30° 263° (W) 13:09:34 145.980
DX 1 23 Apr 13:04:46 13:06:47 13° 92° (E) 13:08:47 434.975-435.025
ESTCUBE 1 23 Apr 13:05:39 13:10:07 57° 286° (WNW) 13:14:33 437.505/2401.250
O/OREOS (USA 219) 23 Apr 13:09:12 13:11:17 13° 306° (NW) 13:13:24 437.305
LO-87 23 Apr 13:12:43 13:15:08 17° 291° (WNW) 13:17:31 145.935 - 145.965
SPROUT 23 Apr 13:29:35 13:33:49 68° 102° (ESE) 13:38:02 437.525
VELOX 1 23 Apr 13:34:57 13:39:25 82° 103° (ESE) 13:43:49 145.980
POLYITAN 1 23 Apr 13:36:47 13:37:49 11° 269° (W) 13:38:52 437.675
Gurwin Techsat 1B 23 Apr 13:53:15 13:58:22 51° 71° (ENE) 14:03:30 435.225
PCSat 23 Apr 14:00:21 14:05:02 30° 251° (WSW) 14:09:41 145.827
AO-85 23 Apr 14:08:53 14:13:14 77° 303° (WNW) 14:17:19 145.980
50 SAT 23 Apr 14:09:48 14:13:13 53° 285° (WNW) 14:16:37 437.505
AO-7 23 Apr 14:13:20 14:19:26 24° 55° (NE) 14:25:32 .
UKube-1 23 Apr 14:13:29 14:17:45 55° 101° (E) 14:21:58 .
BUGSAT 1 23 Apr 14:21:02 14:22:52 13° 268° (W) 14:24:43 437.445
Oscar 19 23 Apr 14:21:08 14:26:07 50° 260° (W) 14:31:09 437.125/150
DX 1 23 Apr 14:39:00 14:43:15 51° 287° (WNW) 14:47:27 434.975-435.025
YUBILEINY 23 Apr 14:39:03 14:43:38 15° 61° (ENE) 14:48:14 435.215
ISS 23 Apr 14:44:47 14:45:50 11° 14° (NNE) 14:46:54 437.550
Tancredo 1 23 Apr 14:50:11 14:51:30 12° 18° (NNE) 14:52:48 437.200
RS-15 23 Apr 14:59:29 15:09:08 25° 25° (NNE) 15:18:30 29.354- 29.394
BEESAT 2 23 Apr 15:05:21 15:08:35 24° 112° (ESE) 15:11:51 435.950
SPROUT 23 Apr 15:08:31 15:09:08 10° 297° (WNW) 15:09:44 437.525
BEESAT 3 23 Apr 15:13:54 15:17:49 90° 11° (N) 15:21:49 437.485
BEESAT 23 Apr 15:19:37 15:23:19 22° 95° (E) 15:27:01 436.000
SO-50 23 Apr 15:22:13 15:24:37 14° 42° (NE) 15:27:01 436.795
Gurwin Techsat 1B 23 Apr 15:34:54 15:38:33 19° 267° (W) 15:42:15 435.225
ITAMSAT 1 23 Apr 15:38:45 15:43:56 78° 74° (ENE) 15:49:08 435.822/435.867
MOZHAYETS 4 23 Apr 15:45:04 15:48:23 19° 94° (E) 15:51:41
UKube-1 23 Apr 15:51:16 15:53:17 13° 296° (WNW) 15:55:17 .
ITUPSAT 1 23 Apr 15:57:02 16:01:43 54° 100° (E) 16:06:23 437.325
AO-7 23 Apr 16:03:01 16:11:19 79° 254° (WSW) 16:19:39 .
ISS 23 Apr 16:19:58 16:23:03 38° 33° (NNE) 16:26:07 437.550
Tancredo 1 23 Apr 16:24:57 16:28:01 53° 36° (NE) 16:31:03 437.200
YUBILEINY 23 Apr 16:33:08 16:41:56 79° 83° (E) 16:50:44 435.215
BEESAT 2 23 Apr 16:42:50 16:46:14 27° 309° (NW) 16:49:42 435.950
DOVE 4 23 Apr 16:51:59 16:54:12 13° 62° (ENE) 16:56:25 437.250
BEESAT 3 23 Apr 16:55:26 16:56:01 10° 319° (NW) 16:56:36 437.485
BEESAT 23 Apr 16:56:49 17:01:08 35° 290° (WNW) 17:05:28 436.000
SO-50 23 Apr 17:01:06 17:05:37 77° 240° (WSW) 17:10:06 436.795
RS-15 23 Apr 17:12:23 17:24:38 67° 54° (NE) 17:36:14 29.354- 29.394
MOZHAYETS 4 23 Apr 17:21:23 17:25:38 38° 289° (WNW) 17:29:53
ITAMSAT 1 23 Apr 17:22:23 17:23:55 11° 270° (W) 17:25:29 435.822/435.867
XW-2F 23 Apr 17:33:10 17:34:47 12° 66° (ENE) 17:36:24 145.980 - 146.000
ITUPSAT 1 23 Apr 17:36:13 17:39:05 16° 296° (WNW) 17:41:55 437.325
NUDT-PHONESAT 23 Apr 17:54:17 17:56:51 18° 69° (ENE) 17:59:24 437.300
ISS 23 Apr 17:56:51 17:59:21 20° 229° (SW) 18:01:50 437.550
KKS-1 23 Apr 17:58:45 18:03:13 86° 281° (W) 18:07:38 437.445
CUTE-I 23 Apr 18:01:08 18:05:57 35° 69° (ENE) 18:10:46 437.470
AO-7 23 Apr 18:01:33 18:05:13 13° 271° (W) 18:08:53 .
Tancredo 1 23 Apr 18:02:06 18:03:37 13° 231° (SW) 18:05:08 437.200
CUBESAT XI-V 23 Apr 18:02:34 18:07:19 83° 282° (WNW) 18:12:01 437.345
XW-2D 23 Apr 18:18:11 18:21:47 49° 75° (ENE) 18:25:25 145.860 - 145.880
XW-2B 23 Apr 18:24:57 18:28:38 58° 75° (ENE) 18:32:19 145.730 - 145.750
DOVE 4 23 Apr 18:25:50 18:31:08 84° 258° (WSW) 18:36:27 437.250
LilacSat-2 23 Apr 18:31:47 18:35:32 79° 77° (ENE) 18:39:18 437.200
YUBILEINY 23 Apr 18:31:53 18:37:39 20° 281° (W) 18:43:25 435.215
XW-2C 23 Apr 18:36:38 18:40:21 87° 77° (ENE) 18:44:07 145.795 - 145.815
STARS 23 Apr 18:40:21 18:44:42 70° 286° (WNW) 18:49:02 437.465
KAITUO 1B 23 Apr 18:42:52 18:46:32 81° 78° (ENE) 18:50:14 145.475/437.950
HO-68 23 Apr 18:51:14 18:57:27 34° 63° (ENE) 19:03:41 435.675
XW-2A 23 Apr 18:58:43 19:00:45 15° 69° (ENE) 19:02:47 145.665 - 145.685
XW-2F 23 Apr 19:05:02 19:08:32 40° 261° (W) 19:12:04 145.980 - 146.000
RS-15 23 Apr 19:25:54 19:36:14 35° 256° (WSW) 19:46:12 29.354- 29.394
NUDT-PHONESAT 23 Apr 19:27:30 19:30:34 25° 264° (W) 19:33:40 437.300
JUGNU 23 Apr 19:33:28 19:34:02 10° 172° (S) 19:34:36 437.505
CUTE 1.7 + AOD 2 23 Apr 19:38:01 19:42:05 52° 74° (ENE) 19:46:12 437.475
CUTE-I 23 Apr 19:41:29 19:46:00 27° 264° (W) 19:50:31 437.470
AAUSAT CUBESAT 2 23 Apr 19:48:24 19:51:28 20° 68° (ENE) 19:54:32 437.432
Oscar 11 23 Apr 20:01:17 20:02:32 11° 63° (ENE) 20:03:47 .
O/OREOS (USA 219) 23 Apr 20:01:24 20:02:49 11° 53° (NE) 20:04:13 437.305
UWE-3 23 Apr 20:02:58 20:06:36 27° 70° (ENE) 20:10:10 435.000/436.395/437.385
SEEDS 23 Apr 20:04:29 20:08:36 68° 76° (ENE) 20:12:48 437.485
CUBEBUG 2 23 Apr 20:08:14 20:12:33 53° 74° (ENE) 20:16:45 437.445
NO-84 23 Apr 20:11:47 20:14:46 23° 128° (SE) 20:17:33 435.350 FM
STRAND 1 23 Apr 20:30:24 20:35:29 65° 102° (ESE) 20:40:32 437.568
XW-2A 23 Apr 20:30:29 20:33:18 24° 263° (W) 20:36:07 145.665 - 145.685
HO-68 23 Apr 20:38:10 20:44:56 45° 261° (W) 20:51:46 435.675
M-CUBED/EXP-1 PRIME 23 Apr 20:52:29 20:56:47 82° 288° (WNW) 21:00:42 437.505
DELFI C3 23 Apr 21:03:29 21:05:42 15° 66° (ENE) 21:07:57 145.870
ZACube-1 23 Apr 21:05:21 21:09:35 80° 78° (ENE) 21:13:46 437.345
AO-73 23 Apr 21:14:15 21:18:28 89° 262° (W) 21:22:39 145.935
CUTE 1.7 + AOD 2 23 Apr 21:16:42 21:18:14 12° 269° (W) 21:19:45 437.475
JUGNU 23 Apr 21:20:10 21:22:07 12° 183° (S) 21:24:04 437.505
AAUSAT CUBESAT 2 23 Apr 21:23:05 21:26:43 29° 264° (W) 21:30:23 437.432
Oscar 11 23 Apr 21:33:50 21:38:05 64° 259° (W) 21:42:22 .
O/OREOS (USA 219) 23 Apr 21:38:14 21:42:49 79° 252° (WSW) 21:47:21 437.305
UWE-3 23 Apr 21:39:32 21:43:00 23° 265° (W) 21:46:25 435.000/436.395/437.385
PRISM 23 Apr 21:46:54 21:47:53 11° 91° (E) 21:48:51 437.425
CUBEBUG 2 23 Apr 21:47:32 21:49:24 12° 268° (W) 21:51:16 437.445
NO-84 23 Apr 21:48:57 21:52:13 33° 321° (NW) 21:55:14 435.350 FM
STRAND 1 23 Apr 22:11:15 22:14:05 15° 298° (WNW) 22:16:55 437.568
ESTCUBE 1 23 Apr 22:30:47 22:31:42 11° 62° (ENE) 22:32:36 437.505/2401.250
OBJECT BX 23 Apr 22:31:34 22:35:09 57° 260° (W) 22:38:44 145.990 - 145.960
TIGRISAT 23 Apr 22:33:00 22:36:20 22° 95° (E) 22:39:41 435.000
DELFI C3 23 Apr 22:36:24 22:40:07 39° 262° (W) 22:43:54 145.870
SRMSAT 23 Apr 22:36:58 22:38:34 11° 175° (S) 22:40:10 437.500
AO-85 23 Apr 22:41:02 22:44:57 55° 57° (ENE) 22:49:02 145.980
UNISAT 6 23 Apr 22:52:40 22:56:43 40° 99° (E) 23:00:46 437.425
PRISM 23 Apr 23:19:24 23:23:29 55° 286° (WNW) 23:27:31 437.425
BEESAT 2 23 Apr 23:24:50 23:26:45 13° 44° (NE) 23:28:38 435.950
BEESAT 3 23 Apr 23:32:03 23:35:43 33° 53° (NE) 23:39:20 437.485
LO-87 23 Apr 23:46:05 23:49:38 52° 260° (W) 23:53:13 145.935 - 145.965
FO-29 23 Apr 23:47:42 23:52:55 83° 285° (WNW) 23:58:23 435.910
QB50P2 23 Apr 23:51:44 23:53:42 13° 92° (E) 23:55:39 145.880/145.840
DX 1 24 Apr 00:00:33 00:01:24 10° 62° (ENE) 00:02:16 434.975-435.025
ESTCUBE 1 24 Apr 00:03:21 00:07:50 75° 259° (W) 00:12:21 437.505/2401.250
TIGRISAT 24 Apr 00:09:20 00:13:00 28° 290° (WNW) 00:16:41 435.000
AIST 2D 24 Apr 00:11:06 00:14:25 38° 98° (E) 00:17:44 435.315
NANOSAT C BR1 24 Apr 00:15:53 00:19:03 21° 95° (E) 00:22:13 145.865
SPROUT 24 Apr 00:21:21 00:25:23 42° 73° (ENE) 00:29:25 437.525
AO-85 24 Apr 00:23:29 00:24:54 12° 251° (WSW) 00:26:21 145.980
SRMSAT 24 Apr 00:25:12 00:26:49 11° 185° (S) 00:28:26 437.500
UNISAT 6 24 Apr 00:30:24 00:33:05 17° 294° (WNW) 00:35:48 437.425
VELOX 1 24 Apr 00:30:26 00:34:49 60° 74° (ENE) 00:39:13 145.980
EO-79 24 Apr 00:40:56 00:44:58 45° 99° (E) 00:48:59 145.935-145.965
50 SAT 24 Apr 00:41:07 00:44:23 39° 73° (ENE) 00:47:40 437.505
DUCHIFAT 1 24 Apr 00:46:48 00:50:47 42° 99° (E) 00:54:44 145.980
BEESAT 2 24 Apr 01:00:55 01:04:58 70° 240° (WSW) 01:08:57 435.950
UKube-1 24 Apr 01:06:28 01:10:27 38° 71° (ENE) 01:14:29 .
BEESAT 3 24 Apr 01:10:08 01:13:05 20° 249° (WSW) 01:16:00 437.485
POLYITAN 1 24 Apr 01:19:09 01:23:18 61° 286° (WNW) 01:27:26 437.675
QB50P2 24 Apr 01:25:41 01:29:44 47° 287° (WNW) 01:33:45 145.880/145.840
DX 1 24 Apr 01:32:35 01:36:57 72° 258° (WSW) 01:41:21 434.975-435.025
AIST 2D 24 Apr 01:46:04 01:47:16 11° 293° (WNW) 01:48:27 435.315
NANOSAT C BR1 24 Apr 01:51:09 01:54:45 29° 290° (WNW) 01:58:23 145.865
SPROUT 24 Apr 01:58:57 02:01:28 15° 267° (W) 02:03:59 437.525
BUGSAT 1 24 Apr 02:01:17 02:05:18 80° 284° (WNW) 02:09:18 437.445
VELOX 1 24 Apr 02:10:07 02:11:37 11° 269° (W) 02:13:07 145.980
Gurwin Techsat 1B 24 Apr 02:11:28 02:15:32 22° 94° (E) 02:19:35 435.225
50 SAT 24 Apr 02:17:12 02:17:32 10° 268° (W) 02:17:51 437.505
EO-79 24 Apr 02:18:03 02:20:20 14° 295° (WNW) 02:22:37 145.935-145.965
DUCHIFAT 1 24 Apr 02:23:42 02:26:04 15° 294° (WNW) 02:28:27 145.980
BEESAT 24 Apr 02:24:52 02:28:33 23° 67° (ENE) 02:32:15 436.000
Oscar 19 24 Apr 02:33:45 02:38:57 63° 101° (ESE) 02:44:05 437.125/150
UKube-1 24 Apr 02:43:46 02:46:37 17° 266° (W) 02:49:28 .
MOZHAYETS 4 24 Apr 02:46:17 02:49:06 17° 65° (ENE) 02:51:57
PCSat 24 Apr 02:56:55 03:01:58 42° 111° (ESE) 03:07:04 145.827
ITUPSAT 1 24 Apr 03:02:17 03:06:54 54° 73° (ENE) 03:11:32 437.325
YUBILEINY 24 Apr 03:39:58 03:45:03 17° 78° (ENE) 03:50:07 435.215
Gurwin Techsat 1B 24 Apr 03:50:37 03:55:38 43° 290° (WNW) 04:00:37 435.225
ITAMSAT 1 24 Apr 03:53:21 03:57:51 30° 97° (E) 04:02:21 435.822/435.867
BEESAT 24 Apr 04:01:46 04:06:06 35° 262° (W) 04:10:28 436.000
AO-7 24 Apr 04:06:25 04:14:02 38° 99° (E) 04:21:37 .
Oscar 19 24 Apr 04:14:38 04:17:42 16° 298° (WNW) 04:20:45 437.125/150
MOZHAYETS 4 24 Apr 04:21:31 04:25:52 46° 261° (W) 04:30:16
NO-84 24 Apr 04:23:47 04:26:38 77° 46° (NE) 04:29:27 435.350 FM
PCSat 24 Apr 04:40:55 04:45:29 27° 309° (NW) 04:50:06 145.827
ITUPSAT 1 24 Apr 04:42:27 04:45:01 14° 268° (W) 04:47:37 437.325
KKS-1 24 Apr 04:55:00 04:59:28 73° 75° (ENE) 05:03:57 437.445
CUBESAT XI-V 24 Apr 05:04:07 05:08:43 81° 78° (ENE) 05:13:25 437.345
YUBILEINY 24 Apr 05:31:53 05:40:35 87° 276° (W) 05:49:21 435.215
ITAMSAT 1 24 Apr 05:32:45 05:37:15 31° 292° (WNW) 05:41:44 435.822/435.867
STARS 24 Apr 05:35:05 05:39:30 86° 79° (E) 05:43:56 437.465
AO-7 24 Apr 05:59:03 06:06:50 47° 296° (WNW) 06:14:38 .
M-CUBED/EXP-1 PRIME 24 Apr 06:05:15 06:06:40 11° 56° (NE) 06:08:05 437.505
CUTE-I 24 Apr 06:20:41 06:23:39 15° 91° (E) 06:26:35 437.470
